"FRM_AIS_EDR_2673.DAT           ",2006-02-10T03:20:20.74 ,"1/0087621617.04284",    0,    0,  305440,"AIS","B1","B2","B0","B0","PISd",0,0,0,0,"B1", 0,15,   0, 0,    0,"AIS","N/A    ","OK ","OK ",    001321.637,    -001.514,    0111.127,    0020.026,    0120.414
"FRM_AIS_EDR_2673.DAT           ",2006-02-10T03:20:28.28 ,"1/0087621624.39884",    0,    1,  305440,"AIS","B1","B2","B0","B0","PISd",0,0,0,0,"B1", 0,15,   0, 0,    0,"AIS","N/A    ","OK ","OK ",    001310.771,    -001.819,    0111.115,    0020.027,    0120.452
"FRM_AIS_EDR_2673.DAT           ",2006-02-10T03:20:35.83 ,"1/0087621632.09947",    0,    2,  305440,"AIS","B1","B2","B0","B0","PISd",0,0,0,0,"B1", 0,15,   0, 0,    0,"AIS","N/A    ","OK ","OK ",    001299.931,    -002.126,    0111.102,    0020.028,    0120.489
"FRM_AIS_EDR_2673.DAT           ",2006-02-10T03:20:43.37 ,"1/0087621639.45546",    0,    3,  305440,"AIS","B1","B2","B0","B0","PISd",0,0,0,0,"B1", 0,15,   0, 0,    0,"AIS","N/A    ","OK ","OK ",    001289.117,    -002.434,    0111.090,    0020.029,    0120.526
"FRM_AIS_EDR_2673.DAT           ",2006-02-10T03:20:50.91 ,"1/0087621647.15610",    0,    4,  305440,"AIS","B1","B2","B0","B0","PISd",0,0,0,0,"B1", 0,15,   0, 0,    0,"AIS","N/A    ","OK ","OK ",    001278.330,    -002.744,    0111.078,    0020.030,    0120.561
"FRM_AIS_EDR_2673.DAT           ",2006-02-10T03:20:58.46 ,"1/0087621654.51209",    0,    5,  305440,"AIS","B1","B2","B0","B0","PISd",0,0,0,0,"B1", 0,15,   0, 0,    0,"AIS","N/A    ","OK ","OK ",    001267.570,    -003.055,    0111.066,    0020.032,    0120.596
"FRM_AIS_EDR_2673.DAT           ",2006-02-10T03:21:06.00 ,"1/0087621662.21273",    0,    6,  305440,"AIS","B1","B2","B0","B0","PISd",0,0,0,0,"B1", 0,15,   0, 0,    0,"AIS","N/A    ","OK ","OK ",    001256.837,    -003.368,    0111.053,    0020.033,    0120.630
"FRM_AIS_EDR_2673.DAT           ",2006-02-10T03:21:13.54 ,"1/0087621669.56872",    0,    7,  305440,"AIS","B1","B2","B0","B0","PISd",0,0,0,0,"B1", 0,15,   0, 0,    0,"AIS","N/A    ","OK ","OK ",    001246.133,    -003.682,    0111.041,    0020.034,    0120.663
"FRM_AIS_EDR_2673.DAT           ",2006-02-10T03:21:21.09 ,"1/0087621677.26935",    0,    8,  305440,"AIS","B1","B2","B0","B0","PISd",0,0,0,0,"B1", 0,15,   0, 0,    0,"AIS","N/A    ","OK ","OK ",    001235.457,    -003.997,    0111.030,    0020.035,    0120.695
"FRM_AIS_EDR_2673.DAT           ",2006-02-10T03:21:28.63 ,"1/0087621684.62535",    0,    9,  305440,"AIS","B1","B2","B0","B0","PISd",0,0,0,0,"B1", 0,15,   0, 0,    0,"AIS","N/A    ","OK ","OK ",    001224.811,    -004.314,    0111.018,    0020.036,    0120.726
"FRM_AIS_EDR_2673.DAT           ",2006-02-10T03:21:36.17 ,"1/0087621692.32598",    0,   10,  305440,"AIS","B1","B2","B0","B0","PISd",0,0,0,0,"B1", 0,15,   0, 0,    0,"AIS","N/A    ","OK ","OK ",    001214.194,    -004.632,    0111.006,    0020.038,    0120.757
"FRM_AIS_EDR_2673.DAT           ",2006-02-10T03:21:43.72 ,"1/0087621700.02661",    0,   11,  305440,"AIS","B1","B2","B0","B0","PISd",0,0,0,0,"B1", 0,15,   0, 0,    0,"AIS","N/A    ","OK ","OK ",    001203.606,    -004.952,    0110.995,    0020.039,    0120.786
"FRM_AIS_EDR_2673.DAT           ",2006-02-10T03:21:51.26 ,"1/0087621707.38261",    0,   12,  305440,"AIS","B1","B2","B0","B0","PISd",0,0,0,0,"B1", 0,15,   0, 0,    0,"AIS","N/A    ","OK ","OK ",    001193.049,    -005.273,    0110.983,    0020.040,    0120.814
"FRM_AIS_EDR_2673.DAT           ",2006-02-10T03:21:58.80 ,"1/0087621715.08324",    0,   13,  305440,"AIS","B1","B2","B0","B0","PISd",0,0,0,0,"B1", 0,15,   0, 0,    0,"AIS","N/A    ","OK ","OK ",    001182.524,    -005.596,    0110.972,    0020.042,    0120.842
"FRM_AIS_EDR_2673.DAT           ",2006-02-10T03:22:06.34 ,"1/0087621722.43923",    0,   14,  305440,"AIS","B1","B2","B0","B0","PISd",0,0,0,0,"B1", 0,15,   0, 0,    0,"AIS","N/A    ","OK ","OK ",    001172.029,    -005.920,    0110.960,    0020.043,    0120.868
"FRM_AIS_EDR_2673.DAT           ",2006-02-10T03:22:13.89 ,"1/0087621730.13987",    0,   15,  305440,"AIS","B1","B2","B0","B0","PISd",0,0,0,0,"B1", 0,15,   0, 0,    0,"AIS","N/A    ","OK ","OK ",    001161.566,    -006.246,    0110.949,    0020.044,    0120.894
"FRM_AIS_EDR_2673.DAT           ",2006-02-10T03:22:21.43 ,"1/0087621737.49586",    0,   16,  305440,"AIS","B1","B2","B0","B0","PISd",0,0,0,0,"B1", 0,15,   0, 0,    0,"AIS","N/A    ","OK ","OK ",    001151.136,    -006.573,    0110.938,    0020.046,    0120.918
"FRM_AIS_EDR_2673.DAT           ",2006-02-10T03:22:28.97 ,"1/0087621745.19650",    0,   17,  305440,"AIS","B1","B2","B0","B0","PISd",0,0,0,0,"B1", 0,15,   0, 0,    0,"AIS","N/A    ","OK ","OK ",    001140.739,    -006.902,    0110.927,    0020.047,    0120.941
"FRM_AIS_EDR_2673.DAT           ",2006-02-10T03:22:36.52 ,"1/0087621752.55249",    0,   18,  305440,"AIS","B1","B2","B0","B0","PISd",0,0,0,0,"B1", 0,15,   0, 0,    0,"AIS","N/A    ","OK ","OK ",    001130.375,    -007.232,    0110.917,    0020.048,    0120.964
"FRM_AIS_EDR_2673.DAT           ",2006-02-10T03:22:44.06 ,"1/0087621760.25312",    0,   19,  305440,"AIS","B1","B2","B0","B0","PISd",0,0,0,0,"B1", 0,15,   0, 0,    0,"AIS","N/A    ","OK ","OK ",    001120.045,    -007.564,    0110.906,    0020.049,    0120.985
"FRM_AIS_EDR_2673.DAT           ",2006-02-10T03:22:51.60 ,"1/0087621767.60912",    0,   20,  305440,"AIS","B1","B2","B0","B0","PISd",0,0,0,0,"B1", 0,15,   0, 0,    0,"AIS","N/A    ","OK ","OK ",    001109.749,    -007.897,    0110.895,    0020.051,    0121.005
"FRM_AIS_EDR_2673.DAT           ",2006-02-10T03:22:59.15 ,"1/0087621775.30975",    0,   21,  305440,"AIS","B1","B2","B0","B0","PISd",0,0,0,0,"B1", 0,15,   0, 0,    0,"AIS","N/A    ","OK ","OK ",    001099.489,    -008.232,    0110.885,    0020.052,    0121.024
"FRM_AIS_EDR_2673.DAT           ",2006-02-10T03:23:06.69 ,"1/0087621783.01038",    0,   22,  305440,"AIS","B1","B2","B0","B0","PISd",0,0,0,0,"B1", 0,15,   0, 0,    0,"AIS","N/A    ","OK ","OK ",    001089.263,    -008.569,    0110.875,    0020.054,    0121.042
"FRM_AIS_EDR_2673.DAT           ",2006-02-10T03:23:14.23 ,"1/0087621790.36638",    0,   23,  305440,"AIS","B1","B2","B0","B0","PISd",0,0,0,0,"B1", 0,15,   0, 0,    0,"AIS","N/A    ","OK ","OK ",    001079.074,    -008.907,    0110.864,    0020.055,    0121.059
"FRM_AIS_EDR_2673.DAT           ",2006-02-10T03:23:21.78 ,"1/0087621798.06701",    0,   24,  305440,"AIS","B1","B2","B0","B0","PISd",0,0,0,0,"B1", 0,15,   0, 0,    0,"AIS","N/A    ","OK ","OK ",    001068.921,    -009.246,    0110.854,    0020.056,    0121.074
"FRM_AIS_EDR_2673.DAT           ",2006-02-10T03:23:29.32 ,"1/0087621805.42300",    0,   25,  305440,"AIS","B1","B2","B0","B0","PISd",0,0,0,0,"B1", 0,15,   0, 0,    0,"AIS","N/A    ","OK ","OK ",    001058.806,    -009.587,    0110.845,    0020.058,    0121.089
"FRM_AIS_EDR_2673.DAT           ",2006-02-10T03:23:36.86 ,"1/0087621813.12364",    0,   26,  305440,"AIS","B1","B2","B0","B0","PISd",0,0,0,0,"B1", 0,15,   0, 0,    0,"AIS","N/A    ","OK ","OK ",    001048.727,    -009.930,    0110.835,    0020.059,    0121.102
"FRM_AIS_EDR_2673.DAT           ",2006-02-10T03:23:44.41 ,"1/0087621820.47963",    0,   27,  305440,"AIS","B1","B2","B0","B0","PISd",0,0,0,0,"B1", 0,15,   0, 0,    0,"AIS","N/A    ","OK ","OK ",    001038.687,    -010.274,    0110.825,    0020.060,    0121.114
"FRM_AIS_EDR_2673.DAT           ",2006-02-10T03:23:51.95 ,"1/0087621828.18026",    0,   28,  305440,"AIS","B1","B2","B0","B0","PISd",0,0,0,0,"B1", 0,15,   0, 0,    0,"AIS","N/A    ","OK ","OK ",    001028.686,    -010.619,    0110.816,    0020.062,    0121.125
"FRM_AIS_EDR_2673.DAT           ",2006-02-10T03:23:59.49 ,"1/0087621835.53626",    0,   29,  305440,"AIS","B1","B2","B0","B0","PISd",0,0,0,0,"B1", 0,15,   0, 0,    0,"AIS","N/A    ","OK ","OK ",    001018.724,    -010.966,    0110.806,    0020.063,    0121.134
"FRM_AIS_EDR_2673.DAT           ",2006-02-10T03:24:07.04 ,"1/0087621843.23689",    0,   30,  305440,"AIS","B1","B2","B0","B0","PISd",0,0,0,0,"B1", 0,15,   0, 0,    0,"AIS","N/A    ","OK ","OK ",    001008.801,    -011.315,    0110.797,    0020.065,    0121.142
"FRM_AIS_EDR_2673.DAT           ",2006-02-10T03:24:14.58 ,"1/0087621850.59289",    0,   31,  305440,"AIS","B1","B2","B0","B0","PISd",0,0,0,0,"B1", 0,15,   0, 0,    0,"AIS","N/A    ","OK ","OK ",    000998.919,    -011.666,    0110.788,    0020.066,    0121.149
"FRM_AIS_EDR_2673.DAT           ",2006-02-10T03:24:22.12 ,"1/0087621858.29352",    0,   32,  305440,"AIS","B1","B2","B0","B0","PISd",0,0,0,0,"B1", 0,15,   0, 0,    0,"AIS","N/A    ","OK ","OK ",    000989.078,    -012.018,    0110.779,    0020.067,    0121.155
"FRM_AIS_EDR_2673.DAT           ",2006-02-10T03:24:29.67 ,"1/0087621865.64951",    0,   33,  305440,"AIS","B1","B2","B0","B0","PISd",0,0,0,0,"B1", 0,15,   0, 0,    0,"AIS","N/A    ","OK ","OK ",    000979.278,    -012.371,    0110.770,    0020.069,    0121.159
"FRM_AIS_EDR_2673.DAT           ",2006-02-10T03:24:37.21 ,"1/0087621873.35015",    0,   34,  305440,"AIS","B1","B2","B0","B0","PISd",0,0,0,0,"B1", 0,15,   0, 0,    0,"AIS","N/A    ","OK ","OK ",    000969.521,    -012.726,    0110.762,    0020.071,    0121.162
"FRM_AIS_EDR_2673.DAT           ",2006-02-10T03:24:44.75 ,"1/0087621881.05078",    0,   35,  305440,"AIS","B1","B2","B0","B0","PISd",0,0,0,0,"B1", 0,15,   0, 0,    0,"AIS","N/A    ","OK ","OK ",    000959.805,    -013.083,    0110.753,    0020.072,    0121.164
"FRM_AIS_EDR_2673.DAT           ",2006-02-10T03:24:52.30 ,"1/0087621888.40677",    0,   36,  305440,"AIS","B1","B2","B0","B0","PISd",0,0,0,0,"B1", 0,15,   0, 0,    0,"AIS","N/A    ","OK ","OK ",    000950.133,    -013.441,    0110.745,    0020.073,    0121.164
"FRM_AIS_EDR_2673.DAT           ",2006-02-10T03:24:59.84 ,"1/0087621896.10741",    0,   37,  305440,"AIS","B1","B2","B0","B0","PISd",0,0,0,0,"B1", 0,15,   0, 0,    0,"AIS","N/A    ","OK ","OK ",    000940.505,    -013.801,    0110.737,    0020.075,    0121.163
"FRM_AIS_EDR_2673.DAT           ",2006-02-10T03:25:07.38 ,"1/0087621903.46340",    0,   38,  305440,"AIS","B1","B2","B0","B0","PISd",0,0,0,0,"B1", 0,15,   0, 0,    0,"AIS","N/A    ","OK ","OK ",    000930.921,    -014.163,    0110.729,    0020.076,    0121.161
"FRM_AIS_EDR_2673.DAT           ",2006-02-10T03:25:14.92 ,"1/0087621911.16403",    0,   39,  305440,"AIS","B1","B2","B0","B0","PISd",0,0,0,0,"B1", 0,15,   0, 0,    0,"AIS","N/A    ","OK ","OK ",    000921.382,    -014.526,    0110.721,    0020.078,    0121.157
"FRM_AIS_EDR_2673.DAT           ",2006-02-10T03:25:22.47 ,"1/0087621918.52003",    0,   40,  305440,"AIS","B1","B2","B0","B0","PISd",0,0,0,0,"B1", 0,15,   0, 0,    0,"AIS","N/A    ","OK ","OK ",    000911.888,    -014.891,    0110.714,    0020.079,    0121.151
"FRM_AIS_EDR_2673.DAT           ",2006-02-10T03:25:30.01 ,"1/0087621926.22066",    0,   41,  305440,"AIS","B1","B2","B0","B0","PISd",0,0,0,0,"B1", 0,15,   0, 0,    0,"AIS","N/A    ","OK ","OK ",    000902.441,    -015.257,    0110.706,    0020.081,    0121.144
"FRM_AIS_EDR_2673.DAT           ",2006-02-10T03:25:37.55 ,"1/0087621933.57665",    0,   42,  305440,"AIS","B1","B2","B0","B0","PISd",0,0,0,0,"B1", 0,15,   0, 0,    0,"AIS","N/A    ","OK ","OK ",    000893.040,    -015.625,    0110.699,    0020.082,    0121.136
"FRM_AIS_EDR_2673.DAT           ",2006-02-10T03:25:45.10 ,"1/0087621941.27729",    0,   43,  305440,"AIS","B1","B2","B0","B0","PISd",0,0,0,0,"B1", 0,15,   0, 0,    0,"AIS","N/A    ","OK ","OK ",    000883.687,    -015.995,    0110.692,    0020.084,    0121.126
"FRM_AIS_EDR_2673.DAT           ",2006-02-10T03:25:52.64 ,"1/0087621948.63328",    0,   44,  305440,"AIS","B1","B2","B0","B0","PISd",0,0,0,0,"B1", 0,15,   0, 0,    0,"AIS","N/A    ","OK ","OK ",    000874.381,    -016.366,    0110.685,    0020.086,    0121.115
"FRM_AIS_EDR_2673.DAT           ",2006-02-10T03:26:00.18 ,"1/0087621956.33391",    0,   45,  305440,"AIS","B1","B2","B0","B0","PISd",0,0,0,0,"B1", 0,15,   0, 0,    0,"AIS","N/A    ","OK ","OK ",    000865.124,    -016.739,    0110.679,    0020.087,    0121.102
"FRM_AIS_EDR_2673.DAT           ",2006-02-10T03:26:07.73 ,"1/0087621964.03455",    0,   46,  305440,"AIS","B1","B2","B0","B0","PISd",0,0,0,0,"B1", 0,15,   0, 0,    0,"AIS","N/A    ","OK ","OK ",    000855.916,    -017.113,    0110.672,    0020.089,    0121.087
"FRM_AIS_EDR_2673.DAT           ",2006-02-10T03:26:15.27 ,"1/0087621971.39054",    0,   47,  305440,"AIS","B1","B2","B0","B0","PISd",0,0,0,0,"B1", 0,15,   0, 0,    0,"AIS","N/A    ","OK ","OK ",    000846.757,    -017.489,    0110.666,    0020.091,    0121.071
"FRM_AIS_EDR_2673.DAT           ",2006-02-10T03:26:22.81 ,"1/0087621979.09118",    0,   48,  305440,"AIS","B1","B2","B0","B0","PISd",0,0,0,0,"B1", 0,15,   0, 0,    0,"AIS","N/A    ","OK ","OK ",    000837.649,    -017.867,    0110.660,    0020.092,    0121.053
"FRM_AIS_EDR_2673.DAT           ",2006-02-10T03:26:30.36 ,"1/0087621986.44717",    0,   49,  305440,"AIS","B1","B2","B0","B0","PISd",0,0,0,0,"B1", 0,15,   0, 0,    0,"AIS","N/A    ","OK ","OK ",    000828.592,    -018.246,    0110.654,    0020.094,    0121.034
"FRM_AIS_EDR_2673.DAT           ",2006-02-10T03:26:37.90 ,"1/0087621994.14780",    0,   50,  305440,"AIS","B1","B2","B0","B0","PISd",0,0,0,0,"B1", 0,15,   0, 0,    0,"AIS","N/A    ","OK ","OK ",    000819.587,    -018.627,    0110.649,    0020.096,    0121.013
"FRM_AIS_EDR_2673.DAT           ",2006-02-10T03:26:45.44 ,"1/0087622001.50380",    0,   51,  305440,"AIS","B1","B2","B0","B0","PISd",0,0,0,0,"B1", 0,15,   0, 0,    0,"AIS","N/A    ","OK ","OK ",    000810.633,    -019.010,    0110.643,    0020.097,    0120.990
"FRM_AIS_EDR_2673.DAT           ",2006-02-10T03:26:52.99 ,"1/0087622009.20443",    0,   52,  305440,"AIS","B1","B2","B0","B0","PISd",0,0,0,0,"B1", 0,15,   0, 0,    0,"AIS","N/A    ","OK ","OK ",    000801.733,    -019.394,    0110.638,    0020.099,    0120.966
"FRM_AIS_EDR_2673.DAT           ",2006-02-10T03:27:00.53 ,"1/0087622016.56042",    0,   53,  305440,"AIS","B1","B2","B0","B0","PISd",0,0,0,0,"B1", 0,15,   0, 0,    0,"AIS","N/A    ","OK ","OK ",    000792.886,    -019.780,    0110.633,    0020.101,    0120.940
"FRM_AIS_EDR_2673.DAT           ",2006-02-10T03:27:08.07 ,"1/0087622024.26106",    0,   54,  305440,"AIS","B1","B2","B0","B0","PISd",0,0,0,0,"B1", 0,15,   0, 0,    0,"AIS","N/A    ","OK ","OK ",    000784.093,    -020.168,    0110.629,    0020.102,    0120.913
"FRM_AIS_EDR_2673.DAT           ",2006-02-10T03:27:15.62 ,"1/0087622031.61705",    0,   55,  305440,"AIS","B1","B2","B0","B0","PISd",0,0,0,0,"B1", 0,15,   0, 0,    0,"AIS","N/A    ","OK ","OK ",    000775.354,    -020.557,    0110.624,    0020.104,    0120.883
"FRM_AIS_EDR_2673.DAT           ",2006-02-10T03:27:23.16 ,"1/0087622039.31768",    0,   56,  305440,"AIS","B1","B2","B0","B0","PISd",0,0,0,0,"B1", 0,15,   0, 0,    0,"AIS","N/A    ","OK ","OK ",    000766.671,    -020.948,    0110.620,    0020.106,    0120.852
"FRM_AIS_EDR_2673.DAT           ",2006-02-10T03:27:30.70 ,"1/0087622047.01832",    0,   57,  305440,"AIS","B1","B2","B0","B0","PISd",0,0,0,0,"B1", 0,15,   0, 0,    0,"AIS","N/A    ","OK ","OK ",    000758.044,    -021.340,    0110.616,    0020.108,    0120.819
"FRM_AIS_EDR_2673.DAT           ",2006-02-10T03:27:38.25 ,"1/0087622054.37431",    0,   58,  305440,"AIS","B1","B2","B0","B0","PISd",0,0,0,0,"B1", 0,15,   0, 0,    0,"AIS","N/A    ","OK ","OK ",    000749.474,    -021.734,    0110.612,    0020.109,    0120.785
"FRM_AIS_EDR_2673.DAT           ",2006-02-10T03:27:45.79 ,"1/0087622062.07494",    0,   59,  305440,"AIS","B1","B2","B0","B0","PISd",0,0,0,0,"B1", 0,15,   0, 0,    0,"AIS","N/A    ","OK ","OK ",    000740.961,    -022.130,    0110.609,    0020.111,    0120.748
"FRM_AIS_EDR_2673.DAT           ",2006-02-10T03:27:53.33 ,"1/0087622069.43094",    0,   60,  305440,"AIS","B1","B2","B0","B0","PISd",0,0,0,0,"B1", 0,15,   0, 0,    0,"AIS","N/A    ","OK ","OK ",    000732.506,    -022.528,    0110.606,    0020.113,    0120.710
"FRM_AIS_EDR_2673.DAT           ",2006-02-10T03:28:00.88 ,"1/0087622077.13157",    0,   61,  305440,"AIS","B1","B2","B0","B0","PISd",0,0,0,0,"B1", 0,15,   0, 0,    0,"AIS","N/A    ","OK ","OK ",    000724.109,    -022.927,    0110.603,    0020.115,    0120.670
"FRM_AIS_EDR_2673.DAT           ",2006-02-10T03:28:08.42 ,"1/0087622084.48756",    0,   62,  305440,"AIS","B1","B2","B0","B0","PISd",0,0,0,0,"B1", 0,15,   0, 0,    0,"AIS","N/A    ","OK ","OK ",    000715.772,    -023.327,    0110.600,    0020.117,    0120.628
"FRM_AIS_EDR_2673.DAT           ",2006-02-10T03:28:15.96 ,"1/0087622092.18820",    0,   63,  305440,"AIS","B1","B2","B0","B0","PISd",0,0,0,0,"B1", 0,15,   0, 0,    0,"AIS","N/A    ","OK ","OK ",    000707.494,    -023.730,    0110.598,    0020.119,    0120.584
"FRM_AIS_EDR_2673.DAT           ",2006-02-10T03:28:23.50 ,"1/0087622099.54419",    0,   64,  305440,"AIS","B1","B2","B0","B0","PISd",0,0,0,0,"B1", 0,15,   0, 0,    0,"AIS","N/A    ","OK ","OK ",    000699.277,    -024.134,    0110.596,    0020.121,    0120.539
"FRM_AIS_EDR_2673.DAT           ",2006-02-10T03:28:31.05 ,"1/0087622107.24482",    0,   65,  305440,"AIS","B1","B2","B0","B0","PISd",0,0,0,0,"B1", 0,15,   0, 0,    0,"AIS","N/A    ","OK ","OK ",    000691.121,    -024.539,    0110.594,    0020.122,    0120.491
"FRM_AIS_EDR_2673.DAT           ",2006-02-10T03:28:38.59 ,"1/0087622114.60082",    0,   66,  305440,"AIS","B1","B2","B0","B0","PISd",0,0,0,0,"B1", 0,15,   0, 0,    0,"AIS","N/A    ","OK ","OK ",    000683.027,    -024.946,    0110.593,    0020.124,    0120.442
"FRM_AIS_EDR_2673.DAT           ",2006-02-10T03:28:46.13 ,"1/0087622122.30145",    0,   67,  305440,"AIS","B1","B2","B0","B0","PISd",0,0,0,0,"B1", 0,15,   0, 0,    0,"AIS","N/A    ","OK ","OK ",    000674.995,    -025.355,    0110.592,    0020.126,    0120.390
"FRM_AIS_EDR_2673.DAT           ",2006-02-10T03:28:53.68 ,"1/0087622130.00208",    0,   68,  305440,"AIS","B1","B2","B0","B0","PISd",0,0,0,0,"B1", 0,15,   0, 0,    0,"AIS","N/A    ","OK ","OK ",    000667.026,    -025.766,    0110.591,    0020.128,    0120.337
"FRM_AIS_EDR_2673.DAT           ",2006-02-10T03:29:01.22 ,"1/0087622137.35808",    0,   69,  305440,"AIS","B1","B2","B0","B0","PISd",0,0,0,0,"B1", 0,15,   0, 0,    0,"AIS","N/A    ","OK ","OK ",    000659.121,    -026.178,    0110.591,    0020.130,    0120.282
"FRM_AIS_EDR_2673.DAT           ",2006-02-10T03:29:08.76 ,"1/0087622145.05871",    0,   70,  305440,"AIS","B1","B2","B0","B0","PISd",0,0,0,0,"B1", 0,15,   0, 0,    0,"AIS","N/A    ","OK ","OK ",    000651.281,    -026.591,    0110.590,    0020.133,    0120.225
"FRM_AIS_EDR_2673.DAT           ",2006-02-10T03:29:16.31 ,"1/0087622152.41471",    0,   71,  305440,"AIS","B1","B2","B0","B0","PISd",0,0,0,0,"B1", 0,15,   0, 0,    0,"AIS","N/A    ","OK ","OK ",    000643.505,    -027.007,    0110.591,    0020.134,    0120.166
"FRM_AIS_EDR_2673.DAT           ",2006-02-10T03:29:23.85 ,"1/0087622160.11534",    0,   72,  305440,"AIS","B1","B2","B0","B0","PISd",0,0,0,0,"B1", 0,15,   0, 0,    0,"AIS","N/A    ","OK ","OK ",    000635.796,    -027.424,    0110.591,    0020.137,    0120.105
"FRM_AIS_EDR_2673.DAT           ",2006-02-10T03:29:31.39 ,"1/0087622167.47133",    0,   73,  305440,"AIS","B1","B2","B0","B0","PISd",0,0,0,0,"B1", 0,15,   0, 0,    0,"AIS","N/A    ","OK ","OK ",    000628.152,    -027.842,    0110.592,    0020.139,    0120.042
"FRM_AIS_EDR_2673.DAT           ",2006-02-10T03:29:38.94 ,"1/0087622175.17197",    0,   74,  305440,"AIS","B1","B2","B0","B0","PISd",0,0,0,0,"B1", 0,15,   0, 0,    0,"AIS","N/A    ","OK ","OK ",    000620.576,    -028.262,    0110.593,    0020.141,    0119.977
"FRM_AIS_EDR_2673.DAT           ",2006-02-10T03:29:46.48 ,"1/0087622182.52796",    0,   75,  305440,"AIS","B1","B2","B0","B0","PISd",0,0,0,0,"B1", 0,15,   0, 0,    0,"AIS","N/A    ","OK ","OK ",    000613.067,    -028.684,    0110.595,    0020.143,    0119.910
"FRM_AIS_EDR_2673.DAT           ",2006-02-10T03:29:54.02 ,"1/0087622190.22859",    0,   76,  305440,"AIS","B1","B2","B0","B0","PISd",0,0,0,0,"B1", 0,15,   0, 0,    0,"AIS","N/A    ","OK ","OK ",    000605.627,    -029.107,    0110.597,    0020.145,    0119.841
"FRM_AIS_EDR_2673.DAT           ",2006-02-10T03:30:01.57 ,"1/0087622197.58459",    0,   77,  305440,"AIS","B1","B2","B0","B0","PISd",0,0,0,0,"B1", 0,15,   0, 0,    0,"AIS","N/A    ","OK ","OK ",    000598.256,    -029.532,    0110.600,    0020.147,    0119.770
"FRM_AIS_EDR_2673.DAT           ",2006-02-10T03:30:09.11 ,"1/0087622205.28522",    0,   78,  305440,"AIS","B1","B2","B0","B0","PISd",0,0,0,0,"B1", 0,15,   0, 0,    0,"AIS","N/A    ","OK ","OK ",    000590.954,    -029.959,    0110.602,    0020.149,    0119.697
"FRM_AIS_EDR_2673.DAT           ",2006-02-10T03:30:16.65 ,"1/0087622212.64121",    0,   79,  305440,"AIS","B1","B2","B0","B0","PISd",0,0,0,0,"B1", 0,15,   0, 0,    0,"AIS","N/A    ","OK ","OK ",    000583.723,    -030.387,    0110.606,    0020.152,    0119.621
"FRM_AIS_EDR_2673.DAT           ",2006-02-10T03:30:24.20 ,"1/0087622220.34185",    0,   80,  305440,"AIS","B1","B2","B0","B0","PISd",0,0,0,0,"B1", 0,15,   0, 0,    0,"AIS","N/A    ","OK ","OK ",    000576.563,    -030.817,    0110.609,    0020.154,    0119.544
"FRM_AIS_EDR_2673.DAT           ",2006-02-10T03:30:31.74 ,"1/0087622228.04248",    0,   81,  305440,"AIS","B1","B2","B0","B0","PISd",0,0,0,0,"B1", 0,15,   0, 0,    0,"AIS","N/A    ","OK ","OK ",    000569.474,    -031.248,    0110.613,    0020.156,    0119.465
"FRM_AIS_EDR_2673.DAT           ",2006-02-10T03:30:39.28 ,"1/0087622235.39847",    0,   82,  305440,"AIS","B1","B2","B0","B0","PISd",0,0,0,0,"B1", 0,15,   0, 0,    0,"AIS","N/A    ","OK ","OK ",    000562.457,    -031.680,    0110.618,    0020.159,    0119.383
"FRM_AIS_EDR_2673.DAT           ",2006-02-10T03:30:46.83 ,"1/0087622243.09911",    0,   83,  305440,"AIS","B1","B2","B0","B0","PISd",0,0,0,0,"B1", 0,15,   0, 0,    0,"AIS","N/A    ","OK ","OK ",    000555.513,    -032.115,    0110.623,    0020.161,    0119.300
"FRM_AIS_EDR_2673.DAT           ",2006-02-10T03:30:54.37 ,"1/0087622250.45510",    0,   84,  305440,"AIS","B1","B2","B0","B0","PISd",0,0,0,0,"B1", 0,15,   0, 0,    0,"AIS","N/A    ","OK ","OK ",    000548.643,    -032.551,    0110.629,    0020.164,    0119.214
"FRM_AIS_EDR_2673.DAT           ",2006-02-10T03:31:01.91 ,"1/0087622258.15573",    0,   85,  305440,"AIS","B1","B2","B0","B0","PISd",0,0,0,0,"B1", 0,15,   0, 0,    0,"AIS","N/A    ","OK ","OK ",    000541.847,    -032.988,    0110.635,    0020.166,    0119.127
"FRM_AIS_EDR_2673.DAT           ",2006-02-10T03:31:09.46 ,"1/0087622265.51173",    0,   86,  305440,"AIS","B1","B2","B0","B0","PISd",0,0,0,0,"B1", 0,15,   0, 0,    0,"AIS","N/A    ","OK ","OK ",    000535.126,    -033.427,    0110.641,    0020.168,    0119.037
"FRM_AIS_EDR_2673.DAT           ",2006-02-10T03:31:17.00 ,"1/0087622273.21236",    0,   87,  305440,"AIS","B1","B2","B0","B0","PISd",0,0,0,0,"B1", 0,15,   0, 0,    0,"AIS","N/A    ","OK ","OK ",    000528.481,    -033.867,    0110.648,    0020.171,    0118.945
"FRM_AIS_EDR_2673.DAT           ",2006-02-10T03:31:24.54 ,"1/0087622280.56835",    0,   88,  305440,"AIS","B1","B2","B0","B0","PISd",0,0,0,0,"B1", 0,15,   0, 0,    0,"AIS","N/A    ","OK ","OK ",    000521.911,    -034.309,    0110.656,    0020.174,    0118.851
"FRM_AIS_EDR_2673.DAT           ",2006-02-10T03:31:32.08 ,"1/0087622288.26899",    0,   89,  305440,"AIS","B1","B2","B0","B0","PISd",0,0,0,0,"B1", 0,15,   0, 0,    0,"AIS","N/A    ","OK ","OK ",    000515.418,    -034.753,    0110.664,    0020.176,    0118.755
"FRM_AIS_EDR_2673.DAT           ",2006-02-10T03:31:39.63 ,"1/0087622295.62498",    0,   90,  305440,"AIS","B1","B2","B0","B0","PISd",0,0,0,0,"B1", 0,15,   0, 0,    0,"AIS","N/A    ","OK ","OK ",    000509.003,    -035.197,    0110.672,    0020.179,    0118.656